QPF
0.00 0.00 0.00 0.00 0.00 0.00 0.00 0.00 0.00 0.00 0.00 0.01 0.02 0.03 0.01 0.00 0.01 0.01 0.01 0.01 0.00 0.00 0.00 0.00 0.00 0.00 0.01 0.02 0.02 0.03 0.06 0.10 0.11 0.11 0.11 0.11 0.08 0.05
0.00 0.00 0.00 0.01 0.00 0.00 0.00 0.00 0.00 0.00 0.00 0.01 0.02 0.02 0.01 0.01 0.01 0.02 0.01 0.01 0.00 0.00 0.00 0.00 0.00 0.01 0.01 0.01 0.01 0.01 0.02 0.02 0.03 0.05 0.06 0.10 0.10 0.06
0.00 0.00 0.00 0.00 0.00 0.00 0.00 0.00 0.00 0.00 0.00 0.00 0.01 0.01 0.01 0.01 0.01 0.01 0.01 0.00 0.00 0.00 0.00 0.00 0.00 0.00 0.00 0.01 0.01 0.01 0.01 0.01 0.03 0.04 0.04 0.06 0.06 0.04
0.00 0.00 0.00 0.00 0.00 0.00 0.00 0.00 0.00 0.00 0.00 0.01 0.01 0.00 0.01 0.01 0.00 0.01 0.01 0.01 0.01 0.01 0.01 0.01 0.01 0.00 0.00 0.00 0.00 0.00 0.00 0.01 0.02 0.02 0.03 0.04 0.05 0.05
0.00 0.00 0.00 0.00 0.00 0.00 0.00 0.00 0.00 0.00 0.00 0.00 0.00 0.00 0.00 0.00 0.00 0.00 0.01 0.01 0.01 0.01 0.01 0.02 0.01 0.01 0.00 0.00 0.00 0.00 0.00 0.01 0.02 0.02 0.03 0.05 0.05 0.04
0.00 0.00 0.00 0.00 0.00 0.00 0.00 0.00 0.00 0.00 0.00 0.00 0.00 0.00 0.00 0.00 0.00 0.00 0.00 0.00 0.01 0.01 0.01 0.02 0.01 0.01 0.01 0.00 0.00 0.00 0.00 0.00 0.01 0.02 0.02 0.03 0.03 0.03
0.00 0.00 0.00 0.00 0.00 0.00 0.00 0.00 0.00 0.00 0.00 0.00 0.00 0.00 0.00 0.00 0.00 0.00 0.00 0.00 0.00 0.00 0.00 0.00 0.00 0.00 0.00 0.00 0.00 0.00 0.01 0.01 0.01 0.01 0.01 0.01 0.01 0.01
0.00 0.00 0.00 0.00 0.00 0.00 0.00 0.00 0.00 0.00 0.00 0.00 0.00 0.00 0.00 0.00 0.00 0.00 0.00 0.00 0.00 0.00 0.00 0.00 0.00 0.00 0.00 0.00 0.00 0.00 0.00 0.00 0.00 0.00 0.01 0.01 0.01 0.01
0.01 0.01 0.00 0.00 0.00 0.00 0.00 0.00 0.00 0.00 0.00 0.00 0.00 0.00 0.00 0.00 0.00 0.00 0.00 0.00 0.00 0.00 0.00 0.00 0.00 0.00 0.00 0.00 0.00 0.00 0.00 0.00 0.00 0.00 0.00 0.00 0.00 0.00
0.01 0.01 0.01 0.01 0.00 0.00 0.00 0.00 0.00 0.00 0.00 0.00 0.00 0.00 0.00 0.00 0.00 0.00 0.00 0.00 0.00 0.00 0.00 0.00 0.00 0.00 0.00 0.00 0.00 0.00 0.00 0.00 0.00 0.00 0.00 0.00 0.00 0.00
0.01 0.01 0.01 0.01 0.00 0.00 0.00 0.00 0.00 0.00 0.00 0.00 0.00 0.00 0.00 0.00 0.00 0.00 0.00 0.00 0.00 0.00 0.00 0.00 0.00 0.00 0.00 0.00 0.00 0.00 0.00 0.00 0.00 0.00 0.00 0.00 0.00 0.00
0.02 0.01 0.01 0.00 0.00 0.00 0.00 0.00 0.00 0.00 0.00 0.00 0.00 0.00 0.00 0.00 0.00 0.00 0.00 0.00 0.00 0.00 0.00 0.00 0.00 0.00 0.00 0.00 0.00 0.00 0.00 0.00 0.00 0.00 0.00 0.00 0.00 0.00
0.01 0.01 0.00 0.00 0.00 0.00 0.00 0.00 0.00 0.00 0.00 0.00 0.00 0.00 0.00 0.00 0.00 0.00 0.00 0.00 0.00 0.00 0.00 0.00 0.00 0.00 0.00 0.00 0.00 0.00 0.00 0.00 0.00 0.00 0.00 0.00 0.00 0.00
0.01 0.01 0.00 0.00 0.00 0.00 0.00 0.00 0.00 0.00 0.00 0.00 0.00 0.00 0.00 0.00 0.00 0.00 0.00 0.00 0.00 0.00 0.00 0.00 0.00 0.00 0.00 0.00 0.00 0.00 0.00 0.00 0.00 0.00 0.00 0.00 0.00 0.00
0.01 0.01 0.01 0.01 0.00 0.00 0.00 0.00 0.00 0.00 0.00 0.00 0.00 0.00 0.00 0.00 0.00 0.00 0.00 0.00 0.00 0.00 0.00 0.00 0.00 0.00 0.00 0.00 0.00 0.00 0.00 0.00 0.00 0.00 0.00 0.00 0.00 0.00
0.01 0.00 0.00 0.01 0.00 0.00 0.00 0.00 0.00 0.00 0.00 0.00 0.00 0.00 0.00 0.00 0.00 0.00 0.00 0.00 0.00 0.00 0.00 0.00 0.00 0.00 0.00 0.00 0.00 0.00 0.00 0.00 0.00 0.00 0.00 0.00 0.00 0.00
0.00 0.00 0.00 0.00 0.00 0.00 0.00 0.00 0.00 0.00 0.00 0.00 0.00 0.00 0.00 0.00 0.00 0.00 0.00 0.00 0.00 0.00 0.00 0.00 0.00 0.00 0.00 0.00 0.00 0.00 0.00 0.00 0.00 0.00 0.00 0.00 0.00 0.00
0.00 0.00 0.00 0.00 0.00 0.00 0.00 0.00 0.00 0.00 0.00 0.00 0.00 0.00 0.00 0.00 0.00 0.00 0.00 0.00 0.00 0.00 0.00 0.00 0.00 0.00 0.00 0.00 0.00 0.00 0.00 0.00 0.00 0.00 0.00 0.00 0.00 0.00
0.00 0.00 0.00 0.00 0.00 0.00 0.00 0.01 0.00 0.00 0.00 0.00 0.00 0.00 0.00 0.00 0.00 0.00 0.00 0.00 0.00 0.00 0.00 0.00 0.00 0.00 0.01 0.01 0.00 0.00 0.00 0.00 0.00 0.00 0.00 0.00 0.00 0.00
0.00 0.01 0.01 0.01 0.01 0.01 0.01 0.01 0.00 0.00 0.00 0.00 0.00 0.00 0.00 0.00 0.00 0.00 0.00 0.01 0.00 0.00 0.00 0.00 0.00 0.00 0.01 0.01 0.01 0.00 0.00 0.00 0.00 0.00 0.00 0.00 0.00 0.00
0.01 0.01 0.01 0.01 0.01 0.01 0.01 0.00 0.00 0.00 0.00 0.00 0.00 0.00 0.00 0.00 0.00 0.01 0.01 0.01 0.01 0.00 0.00 0.00 0.00 0.00 0.00 0.01 0.01 0.00 0.00 0.00 0.00 0.01 0.01 0.02 0.01 0.01
0.01 0.01 0.01 0.01 0.01 0.00 0.00 0.00 0.00 0.00 0.00 0.00 0.00 0.00 0.00 0.00 0.00 0.01 0.01 0.01 0.01 0.01 0.00 0.00 0.00 0.00 0.00 0.01 0.01 0.00 0.00 0.00 0.00 0.00 0.01 0.02 0.03 0.04
0.01 0.01 0.01 0.00 0.00 0.00 0.00 0.00 0.00 0.00 0.00 0.00 0.00 0.00 0.00 0.01 0.01 0.01 0.01 0.00 0.00 0.00 0.01 0.00 0.00 0.00 0.00 0.00 0.01 0.01 0.00 0.00 0.00 0.00 0.00 0.01 0.01 0.02
MSLP
1024.88 1024.99 1025.15 1025.32 1025.49 1025.64 1025.75 1025.82 1025.85 1025.83 1025.79 1025.70 1025.59 1025.43 1025.22 1024.96 1024.66 1024.33 1023.99 1023.66 1023.36 1023.12 1022.94 1022.80 1022.68 1022.57 1022.41 1022.18 1021.86 1021.47 1021.00 1020.48 1019.95 1019.42 1018.91 1018.41 1017.89 1017.31
1025.72 1025.79 1025.89 1025.99 1026.09 1026.18 1026.25 1026.29 1026.32 1026.33 1026.31 1026.27 1026.19 1026.06 1025.87 1025.61 1025.30 1024.93 1024.55 1024.18 1023.84 1023.57 1023.35 1023.18 1023.05 1022.91 1022.74 1022.49 1022.15 1021.72 1021.21 1020.65 1020.07 1019.50 1018.95 1018.41 1017.86 1017.24
1026.53 1026.59 1026.65 1026.71 1026.76 1026.80 1026.83 1026.86 1026.89 1026.91 1026.93 1026.92 1026.88 1026.77 1026.59 1026.33 1026.00 1025.61 1025.19 1024.76 1024.37 1024.04 1023.77 1023.56 1023.38 1023.21 1023.00 1022.72 1022.34 1021.88 1021.33 1020.73 1020.11 1019.50 1018.91 1018.34 1017.76 1017.12
1027.30 1027.37 1027.42 1027.46 1027.48 1027.50 1027.51 1027.52 1027.54 1027.57 1027.60 1027.62 1027.60 1027.51 1027.34 1027.08 1026.73 1026.31 1025.84 1025.37 1024.92 1024.52 1024.19 1023.91 1023.68 1023.46 1023.20 1022.88 1022.47 1021.97 1021.38 1020.74 1020.09 1019.43 1018.81 1018.21 1017.60 1016.96
1027.98 1028.07 1028.15 1028.19 1028.21 1028.22 1028.21 1028.21 1028.23 1028.26 1028.29 1028.31 1028.30 1028.22 1028.05 1027.79 1027.43 1026.98 1026.48 1025.96 1025.45 1024.99 1024.59 1024.25 1023.95 1023.66 1023.35 1022.98 1022.53 1022.00 1021.38 1020.71 1020.02 1019.33 1018.67 1018.04 1017.42 1016.77
1028.53 1028.66 1028.77 1028.84 1028.87 1028.88 1028.87 1028.86 1028.86 1028.87 1028.89 1028.91 1028.89 1028.81 1028.65 1028.39 1028.03 1027.57 1027.06 1026.50 1025.95 1025.44 1024.98 1024.57 1024.20 1023.86 1023.49 1023.08 1022.59 1022.02 1021.37 1020.67 1019.95 1019.23 1018.54 1017.88 1017.24 1016.60
1028.90 1029.08 1029.23 1029.33 1029.39 1029.41 1029.40 1029.38 1029.36 1029.35 1029.35 1029.35 1029.32 1029.24 1029.08 1028.84 1028.49 1028.06 1027.54 1026.99 1026.42 1025.88 1025.37 1024.91 1024.49 1024.08 1023.66 1023.20 1022.67 1022.07 1021.40 1020.68 1019.93 1019.18 1018.46 1017.77 1017.11 1016.47
1029.10 1029.32 1029.50 1029.63 1029.72 1029.75 1029.75 1029.72 1029.69 1029.66 1029.63 1029.61 1029.57 1029.50 1029.36 1029.14 1028.83 1028.43 1027.96 1027.43 1026.87 1026.32 1025.79 1025.29 1024.82 1024.36 1023.90 1023.39 1022.84 1022.21 1021.52 1020.78 1020.01 1019.24 1018.48 1017.76 1017.07 1016.41
1029.13 1029.38 1029.59 1029.76 1029.87 1029.92 1029.92 1029.90 1029.85 1029.80 1029.76 1029.73 1029.69 1029.62 1029.52 1029.34 1029.09 1028.75 1028.33 1027.85 1027.33 1026.80 1026.26 1025.74 1025.24 1024.74 1024.23 1023.69 1023.10 1022.46 1021.75 1021.00 1020.22 1019.42 1018.63 1017.87 1017.14 1016.44
1029.05 1029.31 1029.55 1029.74 1029.88 1029.96 1029.98 1029.95 1029.91 1029.85 1029.81 1029.77 1029.74 1029.70 1029.63 1029.51 1029.32 1029.05 1028.71 1028.29 1027.82 1027.31 1026.79 1026.26 1025.73 1025.20 1024.65 1024.08 1023.47 1022.80 1022.09 1021.33 1020.53 1019.72 1018.90 1018.10 1017.33 1016.58
1028.91 1029.19 1029.45 1029.68 1029.85 1029.95 1030.00 1029.99 1029.96 1029.91 1029.86 1029.84 1029.82 1029.81 1029.78 1029.71 1029.58 1029.39 1029.11 1028.76 1028.34 1027.87 1027.35 1026.82 1026.27 1025.70 1025.13 1024.53 1023.89 1023.21 1022.49 1021.73 1020.93 1020.10 1019.26 1018.43 1017.60 1016.80
1028.78 1029.08 1029.38 1029.64 1029.85 1029.99 1030.07 1030.09 1030.07 1030.04 1030.01 1030.00 1030.00 1030.01 1030.01 1029.98 1029.91 1029.77 1029.55 1029.25 1028.86 1028.41 1027.91 1027.36 1026.79 1026.20 1025.59 1024.96 1024.30 1023.61 1022.89 1022.12 1021.33 1020.49 1019.65 1018.78 1017.92 1017.07
1028.70 1029.04 1029.37 1029.68 1029.93 1030.11 1030.23 1030.29 1030.30 1030.30 1030.28 1030.28 1030.30 1030.32 1030.34 1030.34 1030.29 1030.18 1029.98 1029.70 1029.33 1028.89 1028.38 1027.82 1027.22 1026.60 1025.96 1025.31 1024.63 1023.93 1023.20 1022.44 1021.65 1020.83 1019.97 1019.10 1018.21 1017.32
1028.67 1029.06 1029.44 1029.80 1030.10 1030.33 1030.49 1030.58 1030.63 1030.65 1030.65 1030.66 1030.68 1030.71 1030.72 1030.72 1030.67 1030.55 1030.36 1030.07 1029.70 1029.24 1028.71 1028.13 1027.51 1026.85 1026.19 1025.50 1024.81 1024.10 1023.37 1022.61 1021.83 1021.01 1020.17 1019.30 1018.41 1017.49
1028.69 1029.13 1029.57 1029.97 1030.32 1030.59 1030.79 1030.93 1031.00 1031.04 1031.06 1031.08 1031.09 1031.10 1031.10 1031.07 1030.99 1030.84 1030.62 1030.31 1029.91 1029.42 1028.87 1028.26 1027.60 1026.93 1026.23 1025.52 1024.81 1024.08 1023.34 1022.59 1021.81 1021.01 1020.18 1019.33 1018.44 1017.53
1028.70 1029.20 1029.69 1030.14 1030.53 1030.84 1031.07 1031.23 1031.34 1031.40 1031.44 1031.45 1031.45 1031.44 1031.40 1031.33 1031.20 1031.01 1030.74 1030.39 1029.94 1029.42 1028.84 1028.20 1027.52 1026.82 1026.10 1025.37 1024.63 1023.89 1023.13 1022.37 1021.59 1020.80 1019.98 1019.14 1018.28 1017.40
1028.66 1029.22 1029.75 1030.23 1030.65 1030.99 1031.25 1031.44 1031.57 1031.65 1031.69 1031.70 1031.69 1031.65 1031.58 1031.46 1031.28 1031.03 1030.71 1030.31 1029.82 1029.27 1028.66 1027.99 1027.30 1026.57 1025.83 1025.07 1024.31 1023.54 1022.76 1021.98 1021.18 1020.38 1019.57 1018.74 1017.91 1017.05
1028.56 1029.16 1029.72 1030.22 1030.65 1031.01 1031.28 1031.49 1031.64 1031.73 1031.79 1031.80 1031.78 1031.72 1031.61 1031.45 1031.23 1030.93 1030.56 1030.11 1029.59 1029.01 1028.38 1027.69 1026.98 1026.24 1025.48 1024.70 1023.91 1023.10 1022.28 1021.46 1020.64 1019.81 1018.98 1018.16 1017.33 1016.51
1028.39 1029.01 1029.58 1030.08 1030.52 1030.88 1031.16 1031.38 1031.55 1031.66 1031.72 1031.75 1031.73 1031.66 1031.53 1031.34 1031.08 1030.74 1030.33 1029.85 1029.31 1028.70 1028.05 1027.36 1026.64 1025.89 1025.11 1024.30 1023.47 1022.62 1021.76 1020.89 1020.01 1019.14 1018.28 1017.43 1016.61 1015.80
1028.17 1028.79 1029.36 1029.86 1030.28 1030.64 1030.92 1031.15 1031.33 1031.46 1031.54 1031.58 1031.57 1031.51 1031.37 1031.16 1030.88 1030.52 1030.08 1029.57 1029.01 1028.39 1027.72 1027.03 1026.30 1025.54 1024.74 1023.91 1023.05 1022.16 1021.24 1020.30 1019.36 1018.43 1017.52 1016.64 1015.80 1014.99
1027.94 1028.55 1029.10 1029.58 1029.98 1030.32 1030.61 1030.84 1031.03 1031.18 1031.29 1031.35 1031.35 1031.29 1031.16 1030.95 1030.65 1030.27 1029.81 1029.29 1028.71 1028.08 1027.41 1026.71 1025.98 1025.21 1024.40 1023.55 1022.65 1021.72 1020.75 1019.75 1018.75 1017.76 1016.79 1015.85 1014.97 1014.14
1027.71 1028.31 1028.83 1029.28 1029.67 1029.99 1030.26 1030.49 1030.69 1030.86 1030.99 1031.07 1031.09 1031.05 1030.92 1030.71 1030.40 1030.01 1029.54 1029.01 1028.41 1027.77 1027.10 1026.39 1025.65 1024.88 1024.06 1023.19 1022.27 1021.30 1020.29 1019.25 1018.20 1017.15 1016.12 1015.14 1014.20 1013.33
1027.52 1028.08 1028.57 1028.99 1029.35 1029.65 1029.92 1030.15 1030.35 1030.53 1030.67 1030.77 1030.81 1030.78 1030.65 1030.44 1030.13 1029.73 1029.25 1028.70 1028.09 1027.44 1026.75 1026.04 1025.30 1024.52 1023.70 1022.82 1021.90 1020.92 1019.89 1018.82 1017.73 1016.64 1015.57 1014.53 1013.55 1012.63
Thickness
5685 5684 5682 5681 5680 5679 5677 5674 5667 5659 5657 5659 5660 5662 5662 5662 5661 5660 5660 5659 5659 5658 5658 5657 5656 5656 5656 5656 5655 5655 5655 5655 5655 5655 5655 5656 5657 5658
5680 5679 5678 5677 5676 5674 5673 5670 5667 5661 5654 5654 5654 5656 5657 5656 5655 5654 5653 5653 5652 5651 5651 5650 5649 5648 5648 5647 5647 5646 5646 5646 5646 5646 5646 5646 5647 5648
5676 5674 5672 5671 5670 5669 5668 5665 5662 5659 5652 5649 5650 5651 5651 5650 5649 5648 5647 5646 5645 5644 5643 5642 5641 5640 5639 5638 5638 5637 5636 5636 5636 5636 5636 5636 5637 5638
5670 5669 5667 5667 5664 5663 5661 5659 5656 5654 5650 5644 5643 5643 5643 5643 5642 5641 5640 5639 5638 5637 5636 5634 5633 5632 5630 5629 5628 5627 5627 5626 5626 5626 5626 5626 5626 5627
5665 5663 5661 5660 5658 5656 5654 5652 5650 5649 5645 5640 5636 5636 5635 5635 5634 5633 5632 5631 5630 5628 5627 5626 5624 5623 5621 5620 5618 5617 5616 5616 5615 5615 5615 5615 5615 5616
5660 5659 5657 5655 5653 5651 5648 5646 5643 5640 5637 5633 5629 5627 5626 5626 5624 5622 5621 5621 5620 5619 5618 5616 5614 5613 5611 5610 5608 5607 5606 5605 5604 5604 5604 5604 5604 5605
5654 5653 5652 5651 5649 5647 5644 5640 5637 5633 5629 5625 5621 5618 5616 5615 5613 5612 5610 5610 5610 5608 5607 5605 5604 5602 5600 5598 5597 5595 5594 5593 5593 5592 5592 5592 5592 5593
5648 5647 5646 5645 5643 5641 5639 5636 5633 5628 5622 5618 5613 5610 5607 5606 5605 5604 5600 5598 5597 5598 5595 5594 5593 5590 5589 5588 5586 5584 5583 5582 5581 5581 5580 5580 5580 5580
5643 5641 5641 5638 5635 5633 5631 5629 5625 5622 5619 5614 5608 5604 5601 5600 5597 5594 5591 5587 5585 5586 5584 5583 5581 5578 5578 5576 5574 5573 5571 5570 5569 5568 5568 5567 5567 5567
5637 5635 5633 5630 5629 5626 5623 5620 5616 5613 5611 5608 5603 5600 5597 5593 5590 5586 5582 5579 5577 5575 5572 5569 5569 5567 5567 5565 5562 5560 5558 5557 5555 5554 5554 5554 5553 5553
5631 5629 5627 5625 5623 5620 5616 5611 5608 5605 5602 5599 5596 5592 5588 5585 5581 5576 5572 5567 5564 5563 5560 5556 5556 5555 5555 5553 5550 5547 5544 5542 5541 5540 5540 5540 5539 5539
5624 5622 5621 5619 5616 5613 5608 5604 5599 5596 5593 5590 5586 5582 5578 5574 5570 5566 5561 5555 5551 5549 5549 5544 5542 5540 5540 5540 5537 5534 5531 5529 5527 5526 5525 5525 5524 5524
5617 5615 5614 5612 5609 5606 5602 5597 5594 5589 5585 5580 5576 5572 5568 5564 5560 5556 5551 5545 5539 5536 5535 5531 5528 5524 5521 5522 5523 5521 5518 5516 5514 5512 5511 5510 5509 5508
5612 5610 5607 5605 5602 5598 5594 5590 5586 5581 5575 5570 5565 5561 5557 5553 5550 5546 5541 5536 5532 5527 5524 5519 5515 5511 5507 5506 5506 5507 5505 5502 5500 5498 5497 5495 5494 5493
5607 5604 5601 5597 5594 5589 5586 5582 5577 5571 5565 5559 5555 5551 5547 5543 5539 5535 5531 5527 5522 5518 5514 5509 5504 5500 5495 5491 5490 5490 5489 5489 5486 5484 5482 5481 5479 5478
5600 5597 5593 5589 5585 5581 5576 5572 5567 5561 5556 5550 5545 5541 5537 5533 5528 5524 5519 5515 5511 5508 5504 5499 5494 5489 5485 5482 5478 5476 5473 5471 5472 5470 5469 5468 5466 5464
5592 5588 5583 5578 5574 5569 5565 5561 5556 5551 5546 5541 5536 5531 5526 5522 5517 5513 5508 5503 5498 5495 5493 5489 5484 5480 5476 5471 5468 5466 5463 5461 5459 5457 5456 5455 5454 5451
5585 5579 5574 5570 5565 5561 5556 5551 5546 5541 5537 5531 5526 5521 5516 5511 5506 5502 5496 5491 5487 5484 5480 5477 5473 5470 5467 5464 5458 5455 5452 5450 5448 5446 5443 5442 5443 5441
5577 5572 5567 5562 5557 5552 5547 5542 5537 5532 5527 5522 5517 5511 5506 5501 5495 5490 5485 5480 5476 5472 5469 5464 5459 5455 5453 5454 5453 5445 5441 5440 5438 5436 5432 5430 5430 5432
5569 5564 5560 5554 5549 5544 5538 5533 5528 5523 5517 5512 5506 5501 5496 5490 5485 5479 5474 5469 5466 5462 5458 5454 5448 5444 5440 5440 5440 5437 5431 5427 5426 5425 5423 5422 5422 5422
5561 5557 5552 5546 5541 5535 5530 5524 5519 5513 5508 5502 5496 5490 5485 5479 5474 5469 5464 5461 5456 5452 5448 5445 5441 5437 5433 5429 5428 5428 5424 5419 5415 5412 5412 5412 5413 5413
5555 5549 5544 5538 5532 5527 5521 5515 5509 5503 5497 5492 5486 5480 5475 5469 5464 5460 5455 5451 5446 5442 5439 5436 5433 5428 5423 5420 5418 5418 5417 5414 5410 5405 5401 5398 5396 5399
5548 5542 5536 5531 5525 5518 5512 5506 5500 5494 5488 5482 5476 5471 5465 5460 5455 5450 5446 5442 5438 5434 5430 5427 5424 5419 5415 5411 5409 5408 5407 5405 5403 5401 5398 5393 5389 5388